Temp
7 7 7 7 7 7 7 7 7 7 7 7 7 7 7 7 7 7 7 7 8 7 7 7 7 7 7 7 7 7 8 9 11 10 11 17 20 20 21 21 21 20 19 19 19 19 18 18 18 18 19 20 20 20 20 21 21 21 22 21 21 21 22 23 24 23 24 25 25 24 23 24 25 24 23 24 24 23 22 21 20 20 19 20 20 19 19 19
7 7 7 7 7 7 7 7 7 7 7 7 7 7 7 7 7 7 7 7 7 7 7 7 7 7 7 7 7 7 8 9 9 10 15 20 20 21 22 21 20 20 19 19 19 19 19 18 18 18 20 20 19 20 21 21 21 21 20 21 22 22 22 23 23 23 23 25 25 24 23 23 25 24 24 25 24 23 24 22 20 20 19 19 18 18 19 19
7 7 7 7 7 7 7 7 7 7 7 7 7 7 7 7 7 7 7 7 7 7 7 7 7 7 7 7 7 8 9 9 11 15 20 22 21 22 22 21 20 20 19 20 19 20 20 19 18 19 20 20 20 19 20 21 21 21 20 21 22 22 22 22 22 23 23 24 24 24 24 24 24 24 24 25 24 24 25 24 23 22 20 19 19 19 19 19
7 7 7 7 7 7 7 7 7 7 7 7 7 7 6 7 7 7 7 7 7 7 7 7 7 7 7 7 7 9 9 11 17 20 20 20 21 21 21 21 20 19 19 20 20 20 21 19 18 20 20 20 19 19 20 21 21 21 21 22 23 21 22 23 23 23 23 22 23 24 24 25 25 23 24 25 25 25 26 26 25 24 21 19 19 19 20 20
7 7 7 7 7 7 7 7 7 7 7 7 7 7 7 7 7 7 6 6 7 7 7 7 7 7 7 7 8 9 10 16 20 20 19 19 20 20 21 21 19 19 19 19 20 20 19 18 19 20 20 20 19 20 21 21 21 21 21 22 22 21 22 24 23 23 22 22 23 23 25 25 24 24 24 25 27 27 26 25 25 24 21 19 19 19 20 20
7 6 6 7 7 7 7 7 7 7 7 7 7 7 7 7 7 7 6 6 6 7 7 7 7 7 7 7 9 10 13 19 20 19 19 19 20 20 21 20 18 18 19 19 19 19 19 18 20 20 20 20 20 21 21 20 21 22 21 21 22 21 22 24 23 23 22 22 23 23 24 24 24 26 23 23 26 25 23 23 23 23 21 20 20 20 20 20
7 6 6 6 7 7 7 7 7 6 7 7 7 7 7 7 6 7 7 6 6 6 7 7 7 7 7 8 10 10 13 17 19 19 20 20 20 20 20 19 18 18 18 19 18 19 19 18 20 20 20 20 20 21 21 20 21 22 22 21 22 22 22 23 23 23 22 22 23 23 23 23 25 26 23 23 23 21 21 21 22 22 21 21 20 20 20 20
6 6 6 6 6 7 6 7 7 6 7 6 7 7 7 7 6 6 6 6 6 6 6 7 7 7 7 8 10 11 12 15 19 20 19 20 20 19 19 18 17 18 18 18 19 19 19 19 20 19 20 21 20 20 20 21 21 21 22 22 22 22 22 23 23 23 22 22 22 22 22 23 24 24 24 24 21 19 21 21 21 21 20 20 19 19 20 20
6 6 6 6 6 6 6 6 6 6 6 6 7 6 6 6 6 6 6 6 6 6 6 7 7 7 7 7 9 12 14 17 19 19 19 19 19 19 19 18 16 17 18 19 19 19 19 20 20 20 21 21 20 20 20 21 22 21 22 22 23 23 23 23 23 23 22 22 22 23 23 23 23 23 25 23 19 20 21 21 21 20 20 19 19 19 19 20
6 6 6 6 6 6 6 6 6 6 6 6 6 6 6 6 6 6 6 6 6 6 6 6 7 7 7 7 10 14 17 18 18 18 18 18 18 17 17 18 17 17 18 18 18 19 20 20 20 20 21 20 20 20 20 22 22 22 22 22 23 23 23 23 24 23 22 22 23 24 24 24 22 24 26 22 19 20 21 20 20 20 20 20 19 19 20 20
6 6 6 6 6 6 6 6 6 6 6 6 6 6 6 6 6 6 5 6 6 6 6 6 6 6 7 7 10 15 17 17 17 18 17 17 17 16 16 17 17 17 18 18 18 20 20 20 20 20 21 21 20 20 20 22 22 22 22 22 22 22 22 23 24 23 23 24 23 24 25 24 23 24 26 22 19 20 20 20 20 21 20 20 20 19 20 20
6 6 6 6 6 6 6 6 6 6 6 6 6 6 6 6 6 5 5 6 6 6 6 6 6 7 7 7 9 15 18 17 17 17 16 16 16 16 16 17 17 18 19 19 19 19 20 20 20 20 21 21 21 20 21 21 22 22 22 23 23 23 23 24 24 23 23 24 23 24 25 25 26 25 24 21 19 20 20 20 20 21 21 20 20 20 20 20
6 6 6 6 6 6 6 6 6 6 6 6 6 6 6 5 5 6 6 5 6 6 6 6 6 6 7 8 11 16 18 17 17 17 16 16 16 16 17 16 17 18 19 19 19 19 20 20 21 21 20 21 21 21 21 21 21 22 22 23 23 23 24 24 23 22 23 24 23 25 24 25 27 26 23 21 20 21 20 20 21 21 21 21 21 20 20 20
6 6 6 6 6 6 6 6 6 6 6 6 6 6 6 5 5 6 6 6 6 6 6 6 6 7 7 9 13 17 17 16 16 16 17 16 16 17 17 17 17 18 18 19 19 19 20 20 21 21 20 21 21 21 21 21 21 22 22 22 22 22 23 24 22 22 24 23 22 25 23 24 28 26 23 21 21 21 20 20 21 21 21 21 21 21 21 20
6 6 6 6 6 6 6 6 6 6 6 6 6 6 6 5 5 5 5 6 6 6 6 6 7 7 7 9 13 16 16 16 16 17 17 17 17 17 17 17 17 17 18 19 19 19 19 19 20 21 20 20 21 21 21 21 21 21 22 21 21 21 23 24 21 21 25 23 22 25 24 24 27 26 23 21 21 22 21 20 21 21 21 21 21 21 21 20
5 5 6 6 6 6 6 6 6 6 6 5 5 5 6 5 5 5 5 5 5 6 6 7 7 7 8 12 15 16 15 15 16 18 18 17 17 17 17 17 17 17 17 18 19 18 18 19 20 20 21 21 21 21 21 21 21 20 21 21 21 21 22 23 23 21 23 23 24 24 24 25 26 25 22 21 21 22 22 21 20 21 21 21 21 21 21 21
5 5 5 5 5 5 6 6 6 5 5 5 5 5 6 6 6 6 5 5 6 6 6 7 7 7 10 14 15 16 16 16 17 18 18 17 18 18 17 16 16 16 17 18 18 18 18 19 19 19 20 20 20 21 21 20 20 20 21 21 20 21 21 22 23 23 22 24 25 24 25 25 25 24 22 21 21 21 22 21 20 21 21 21 22 21 21 21
5 5 5 5 5 5 5 6 5 5 5 5 5 5 6 6 6 6 6 6 6 6 7 7 7 9 13 14 15 16 17 17 17 17 17 16 17 18 17 17 16 17 17 18 18 18 18 18 19 19 20 19 20 21 20 20 20 20 21 21 20 20 21 22 23 23 23 24 25 24 25 25 24 24 22 21 21 21 22 21 21 21 21 21 21 21 22 21
5 5 5 5 5 5 5 5 5 5 5 5 5 5 7 6 6 6 6 6 7 9 10 9 9 13 16 14 15 16 16 17 17 17 17 16 17 18 18 17 17 17 18 18 18 18 18 18 18 19 19 19 20 21 21 21 22 21 21 21 21 21 21 22 22 22 22 24 24 24 24 24 22 22 21 20 19 20 21 21 21 21 20 21 21 21 21 21
5 5 5 5 5 5 5 5 5 5 5 5 5 6 7 8 8 8 6 6 7 10 10 10 10 13 15 14 14 15 16 18 17 17 17 16 17 18 18 17 17 18 18 18 18 18 18 18 18 19 19 19 20 20 21 21 21 21 21 21 21 21 22 22 22 21 21 23 23 22 22 21 20 19 18 19 19 20 20 21 21 21 21 20 20 21 21 21
5 5 5 5 5 5 5 5 5 5 5 5 5 5 7 8 9 9 8 8 8 9 9 9 10 12 14 14 14 15 16 17 17 17 17 17 18 18 18 18 17 18 18 18 18 18 18 18 19 19 20 20 19 19 20 20 20 21 21 21 21 21 22 22 22 21 21 22 21 20 21 20 19 18 17 18 19 18 18 19 21 21 21 21 20 20 20 21
5 5 5 5 5 5 5 5 5 5 5 5 4 5 6 7 8 8 8 9 10 10 10 10 10 11 12 13 13 14 14 15 17 18 17 17 19 19 18 18 18 18 17 17 18 18 18 18 19 19 18 18 17 18 20 20 20 21 21 21 21 21 22 21 21 21 21 22 21 20 21 19 18 18 17 17 17 17 17 18 19 20 21 21 21 21 20 20
5 5 5 5 5 5 5 5 5 5 5 5 4 5 6 8 8 8 8 9 10 11 10 10 10 10 11 12 13 13 14 14 16 17 17 17 18 19 19 18 18 18 17 18 19 18 18 19 18 17 17 18 17 17 19 20 20 20 21 21 21 20 21 21 20 20 20 20 21 21 21 20 19 19 18 18 17 17 18 18 18 19 19 20 21 21 21 20
5 5 5 5 5 5 5 5 5 5 4 4 4 6 7 8 8 7 8 9 10 11 11 11 11 11 12 13 14 14 14 15 16 17 18 18 18 18 19 18 18 17 17 18 19 18 19 19 17 16 18 19 18 17 19 20 19 19 20 21 21 21 21 22 21 20 20 19 21 22 21 20 20 19 18 19 18 18 19 19 18 18 18 19 19 19 20 20
5 5 5 5 5 5 5 5 5 4 4 4 5 7 7 7 7 7 8 10 11 12 12 12 12 13 14 14 15 15 15 15 16 17 18 18 19 18 18 18 18 18 18 18 18 19 19 18 17 17 18 18 18 18 19 20 20 19 19 21 22 22 22 21 21 21 21 20 20 20 21 20 20 19 18 18 19 18 19 19 18 18 18 18 18 18 18 18
4 5 5 5 5 5 5 5 5 4 4 6 6 7 7 7 7 6 8 11 12 13 14 14 14 15 16 15 15 16 15 16 17 18 18 19 20 19 19 18 19 18 17 18 19 19 18 16 17 18 17 18 19 19 18 20 20 20 20 21 21 22 22 21 21 21 21 21 19 19 21 21 20 20 18 18 18 18 19 19 18 18 18 18 18 17 18 18
5 5 5 5 5 5 5 5 5 4 5 6 6 6 7 7 6 6 9 11 13 14 14 13 14 16 16 15 16 16 16 17 18 18 18 20 20 20 19 18 18 18 17 18 19 19 17 16 17 18 18 18 19 19 18 19 20 21 20 21 21 21 22 21 22 21 21 20 19 19 21 21 20 20 18 18 19 18 18 18 18 18 17 17 17 17 17 17
5 4 4 4 5 4 4 4 4 4 6 7 6 6 7 7 6 7 10 12 13 15 15 14 15 17 16 16 17 18 18 18 18 18 19 20 20 20 19 19 19 18 17 18 19 18 17 17 17 17 18 18 18 20 18 19 21 21 19 19 20 21 21 22 22 21 20 20 20 20 21 20 20 20 18 19 19 18 17 17 17 17 17 17 17 16 16 16
4 4 4 5 4 4 4 4 4 5 6 6 5 6 7 6 7 9 11 12 14 16 17 16 16 16 15 15 16 18 18 19 19 18 19 20 20 20 19 19 19 19 18 19 19 18 18 18 18 18 19 18 19 20 19 19 21 19 18 18 20 20 20 20 21 21 20 20 21 20 20 20 20 20 19 19 19 18 17 17 17 17 17 16 16 16 16 16
4 4 4 4 4 4 4 4 4 5 6 5 5 6 6 6 9 11 11 12 14 16 17 16 16 16 15 15 16 17 18 18 18 18 19 19 19 19 19 18 19 19 18 19 19 18 18 18 19 19 20 20 19 18 18 19 20 18 18 20 20 19 19 19 20 20 20 20 20 19 19 20 20 19 18 17 18 18 17 17 17 17 16 16 16 16 15 15
4 4 4 4 4 4 4 4 5 5 5 4 5 6 7 9 11 11 11 13 14 15 16 16 15 16 15 15 16 16 17 18 18 18 18 19 19 19 18 18 19 19 18 18 19 18 18 18 18 19 19 19 19 18 17 18 18 19 21 21 20 20 20 20 20 20 20 20 20 17 17 20 21 19 17 17 17 17 17 17 17 17 16 16 15 15 15 15
4 4 4 4 4 4 4 5 5 5 4 5 5 7 9 11 11 10 12 14 14 13 15 16 16 16 15 16 17 16 17 18 18 19 19 19 19 19 19 19 19 18 17 18 18 18 18 19 19 19 19 19 20 18 18 18 19 20 21 21 20 20 20 20 20 20 20 20 19 17 18 20 19 18 17 17 17 17 17 17 16 16 15 15 15 14 14 14
4 4 4 4 4 4 4 5 5 5 5 4 5 8 11 10 10 11 13 14 13 12 14 15 16 16 16 16 17 17 18 18 18 19 19 19 19 18 18 18 19 19 17 17 18 18 18 19 19 19 19 20 20 19 18 18 19 20 20 21 20 20 19 19 19 19 20 20 18 17 18 19 17 17 17 17 16 16 16 16 15 15 14 14 14 14 14 13
4 4 4 4 4 4 4 4 4 4 4 4 7 10 11 10 11 13 13 13 13 12 12 14 16 16 16 17 17 17 18 18 18 18 18 18 18 18 18 18 19 19 18 17 17 18 18 18 19 20 20 20 21 21 20 19 19 20 20 21 21 20 20 19 19 20 20 20 19 18 18 18 17 17 17 16 16 16 16 15 15 14 14 14 14 13 13 13
4 4 4 4 4 5 5 5 4 4 4 5 9 11 10 10 12 13 12 13 13 11 12 14 15 15 16 17 18 18 18 18 18 18 18 18 18 18 18 18 18 18 18 17 17 17 18 18 20 20 19 20 21 21 20 20 20 19 19 20 20 21 20 18 17 18 19 20 19 17 17 17 17 16 16 16 16 16 16 15 14 14 14 14 13 13 12 12
4 4 5 4 4 5 6 5 4 4 4 7 11 11 10 11 12 12 12 12 12 12 12 14 15 15 16 17 17 18 18 18 18 18 18 18 18 18 18 19 18 18 19 18 17 17 18 19 19 18 19 20 21 21 20 20 20 19 19 20 19 20 21 18 16 16 18 20 18 15 15 16 16 16 16 16 16 15 15 15 14 13 13 13 12 12 12 11
4 4 5 5 5 6 6 5 4 4 5 9 11 11 11 13 13 13 12 12 13 13 12 13 15 16 16 16 17 18 18 18 18 18 17 17 18 18 18 19 18 19 20 19 18 18 18 19 18 18 20 20 20 21 20 20 20 19 20 20 19 19 20 20 19 18 19 20 17 15 16 17 17 17 16 16 16 16 15 14 13 13 13 12 11 11 11 11
4 4 5 6 6 6 6 5 4 5 7 10 11 11 12 13 14 14 14 14 14 13 12 12 15 17 17 16 17 18 19 18 17 18 17 17 18 18 18 19 18 19 20 20 19 18 18 20 19 19 20 19 19 21 20 19 20 20 21 21 20 20 20 19 19 19 19 18 16 15 16 16 18 18 16 17 17 15 14 13 13 12 12 11 11 11 10 10
4 5 6 7 6 6 5 5 5 7 9 10 10 11 12 13 14 14 14 14 14 13 12 13 15 16 17 17 17 18 18 18 17 17 17 17 18 17 18 19 18 19 19 20 20 17 17 19 19 18 18 19 20 21 20 20 20 20 20 21 20 20 20 20 20 20 20 17 16 16 15 17 19 18 17 18 17 15 14 13 12 11 11 11 10 10 10 10
5 6 7 6 5 5 5 5 7 9 10 10 10 11 12 13 14 14 15 15 14 13 13 14 15 16 17 17 17 18 18 17 18 17 17 18 18 17 18 19 19 19 19 19 19 17 17 18 19 19 18 19 20 20 20 21 20 20 20 20 20 19 20 20 19 19 19 18 17 16 16 17 18 17 18 19 17 15 14 12 12 11 11 10 10 10 10 10
5 7 7 6 5 5 5 7 9 9 10 10 10 11 12 13 13 14 15 15 15 14 14 14 15 15 16 17 17 18 18 17 18 17 17 17 18 17 17 17 18 18 18 19 19 18 18 19 19 19 19 20 20 18 18 20 21 21 21 21 21 20 20 21 19 18 19 18 17 17 18 18 16 15 17 18 16 14 13 12 11 11 10 10 9 10 10 10
6 7 7 6 5 6 7 8 9 9 10 10 11 12 13 13 13 14 15 15 14 14 14 15 15 15 16 17 17 18 17 17 17 18 17 17 17 17 16 16 17 19 19 19 19 18 18 19 19 19 19 19 18 17 16 17 19 20 20 20 21 21 21 21 20 19 18 17 17 18 19 18 15 14 16 16 15 14 13 13 11 10 10 10 9 10 9 9
6 7 7 6 6 6 8 9 9 9 10 10 11 12 13 13 13 14 14 14 14 14 14 15 16 16 16 16 17 18 17 17 16 17 17 16 16 16 16 15 16 18 19 19 19 18 18 19 19 18 18 19 18 17 17 17 18 20 19 17 18 20 21 21 20 20 18 17 18 19 20 18 15 13 14 13 13 13 12 12 11 10 10 10 9 9 9 9
6 6 6 6 6 6 8 10 10 9 10 11 11 12 12 13 13 13 14 14 14 15 15 15 16 16 16 16 17 17 17 17 16 16 16 16 16 16 15 15 16 19 19 19 19 19 19 18 18 18 18 18 18 19 19 19 18 18 16 15 16 18 19 19 19 20 19 17 18 20 20 17 14 12 12 12 11 11 11 11 11 10 10 9 9 9 8 8
6 7 7 6 6 6 8 9 9 10 10 10 10 11 12 13 13 14 14 14 15 15 15 15 16 16 15 16 17 16 16 17 17 16 16 16 16 16 15 15 17 18 18 18 19 20 17 15 17 19 18 18 18 18 18 18 18 16 15 15 15 16 19 20 19 20 20 17 17 20 19 16 13 12 12 11 10 10 10 10 10 10 9 9 8 8 8 8
6 7 7 7 7 7 8 8 9 9 10 10 10 11 12 13 14 14 14 14 15 15 15 15 15 16 16 16 17 16 16 17 17 17 16 16 16 16 15 15 16 17 17 17 17 18 15 12 13 17 18 17 17 15 14 15 17 17 15 15 14 14 17 19 20 21 20 17 17 20 18 15 13 13 12 11 10 10 9 9 9 9 9 8 8 8 8 7
6 7 7 7 8 8 8 8 9 9 9 10 11 11 11 12 13 14 14 15 15 15 15 14 14 15 16 16 16 16 15 16 17 16 16 16 16 16 15 16 16 17 17 16 16 16 15 13 12 13 13 13 13 12 12 13 14 14 14 14 14 13 16 20 21 19 19 19 19 18 15 15 14 13 12 11 10 9 9 8 9 8 8 8 8 7 7 7
6 7 8 8 8 8 8 9 9 9 9 10 11 11 11 12 13 14 15 15 15 15 15 16 14 14 15 16 16 16 16 16 16 16 16 16 16 16 16 17 16 16 17 16 15 16 16 14 12 12 12 11 11 11 12 12 12 12 12 13 13 13 15 18 16 14 16 20 20 17 15 15 14 12 12 11 10 9 8 8 8 8 8 7 7 7 7 7
6 6 7 8 9 8 9 9 9 9 10 10 10 11 11 12 13 14 14 15 16 15 15 16 15 13 14 15 16 16 16 16 16 15 15 16 16 16 17 17 16 16 17 17 15 15 15 13 12 12 12 11 12 12 12 12 12 12 12 12 12 12 13 14 12 11 13 16 16 15 14 13 12 11 10 9 8 8 7 7 8 7 7 7 7 6 6 7
6 6 7 8 8 8 9 9 9 9 9 10 11 11 11 12 14 14 13 14 16 16 15 14 14 14 14 15 16 16 14 15 17 16 15 16 16 16 17 17 17 16 17 16 15 15 15 14 12 13 13 12 11 12 12 12 12 11 11 11 12 12 12 12 12 12 13 13 13 13 13 10 9 9 8 8 8 7 7 7 7 7 7 6 6 6 6 6
6 6 7 8 9 9 9 9 9 10 10 10 11 11 11 12 14 14 14 13 14 15 15 15 14 15 15 15 15 14 14 14 16 15 14 15 16 15 15 15 16 17 17 15 15 16 16 13 12 13 14 13 11 11 12 12 13 12 12 11 11 12 12 11 11 11 13 13 12 13 13 10 8 8 7 7 7 7 7 6 6 6 6 6 6 6 6 6
6 6 7 7 9 9 9 9 9 10 11 11 11 12 12 13 13 14 14 14 13 13 13 14 15 15 15 15 14 14 14 13 13 12 12 13 13 12 13 13 13 15 17 15 14 14 15 14 14 15 15 13 12 12 11 13 16 15 12 10 10 11 11 11 11 11 12 13 13 13 12 10 8 8 8 7 6 6 6 6 6 6 5 6 6 6 5 5
Height
812 811 811 811 810 810 809 808 808 807 807 806 805 805 804 803 802 801 801 800 799 798 797 795 795 794 792 791 790 788 787 784 782 782 777 767 767 772 772 773 775 776 777 778 779 780 783 785 785 786 787 788 790 791 792 792 792 794 800 807 808 807 803 796 795 794 792 789 786 785 785 787 784 780 777 775 777 779 781 783 784 783 783 783 782 783 784 787
811 811 810 810 809 809 808 808 807 806 806 805 805 804 803 802 801 801 800 799 798 797 796 795 794 793 792 791 789 788 786 783 783 778 766 763 769 770 770 772 774 775 776 777 778 778 781 784 785 786 786 789 791 791 792 792 792 796 803 807 803 800 796 791 791 791 791 789 787 786 786 786 783 780 777 779 784 782 782 785 785 786 785 784 784 785 786 787
810 810 809 809 808 808 807 807 806 806 805 804 804 803 802 801 801 800 799 798 798 797 795 794 793 792 791 790 789 787 785 784 781 770 760 763 767 766 768 770 772 774 774 776 777 778 779 781 783 785 787 789 791 792 793 792 793 795 801 804 797 794 793 790 791 790 789 789 789 787 785 784 782 780 779 781 786 784 782 783 784 786 786 786 785 786 787 788
810 809 809 808 808 807 806 806 805 805 804 803 802 802 801 800 800 799 798 798 797 796 795 794 793 791 790 789 788 786 785 783 773 763 760 762 763 764 765 766 769 772 774 776 777 778 778 780 783 785 787 791 792 793 793 792 793 795 796 797 792 792 793 788 788 787 788 790 790 788 785 783 781 781 781 781 785 785 781 777 777 779 782 784 785 785 787 788
809 808 808 807 807 806 806 805 804 804 803 802 802 801 800 799 799 798 797 796 796 795 794 793 792 790 790 788 787 785 786 780 765 759 761 761 761 763 764 763 767 770 773 775 776 778 778 781 783 785 788 790 793 793 792 789 790 794 794 792 789 792 792 785 785 787 788 790 789 788 786 783 781 781 781 781 782 782 778 773 772 773 777 781 782 784 786 787
808 807 807 806 806 805 804 804 803 803 802 801 801 800 799 799 798 797 796 795 795 795 793 793 791 790 789 787 786 785 785 775 761 759 761 760 761 762 762 762 765 769 772 774 775 777 778 781 783 786 787 789 792 790 789 789 789 792 792 791 788 789 789 784 784 786 787 789 789 788 785 783 783 781 781 782 781 778 775 772 771 772 775 779 781 783 785 787
807 806 806 805 805 804 803 803 802 802 801 800 800 799 798 797 797 796 795 795 794 793 793 792 791 790 788 787 786 785 786 772 758 760 760 760 761 761 762 762 764 768 770 772 774 775 777 781 782 784 787 789 791 788 787 788 789 791 791 789 787 787 787 785 783 784 787 788 787 785 785 785 784 782 782 782 781 778 775 772 771 773 776 780 782 784 786 787
806 805 805 804 804 803 803 802 801 801 800 799 798 798 797 796 796 795 794 794 793 792 792 791 790 789 787 787 785 786 785 769 757 761 761 760 760 760 761 761 764 767 768 770 771 773 776 779 780 782 786 786 787 787 787 788 790 791 790 787 785 785 784 783 783 783 785 786 785 785 785 785 782 781 781 780 781 779 775 773 773 775 778 781 783 785 787 789
805 804 804 803 802 802 801 800 800 799 798 798 797 797 796 795 794 794 793 792 792 792 791 790 790 789 788 787 787 784 775 763 760 762 760 759 759 759 759 760 763 765 767 769 770 772 774 776 778 778 781 783 784 785 785 788 789 787 785 785 784 783 782 782 781 780 782 783 782 783 784 782 780 780 780 780 782 779 776 775 776 777 780 783 785 786 788 790
804 803 803 802 801 800 800 799 799 798 797 797 796 795 794 794 793 792 792 791 791 790 790 790 789 789 788 787 787 780 766 760 762 760 759 759 758 758 758 758 761 764 766 768 770 770 770 772 774 775 777 781 783 784 785 785 784 781 783 783 782 782 782 782 780 779 781 780 779 780 782 781 780 781 780 781 782 779 778 778 778 779 781 783 785 787 789 791
803 802 802 801 800 799 798 797 797 797 796 795 795 794 793 792 791 791 790 790 790 789 789 789 788 789 788 787 786 774 761 760 761 760 760 759 758 759 759 758 760 763 765 767 769 768 769 770 772 775 777 779 782 785 784 780 779 780 782 783 783 783 783 782 779 779 780 777 776 777 779 780 779 780 779 779 781 780 781 781 780 780 781 783 785 787 789 791
802 801 800 800 799 798 797 796 796 795 794 794 793 792 792 791 790 790 789 788 788 788 788 788 788 788 787 789 782 766 759 761 760 760 760 760 760 760 760 760 761 763 763 765 767 768 770 771 771 775 776 776 780 785 781 776 778 779 781 784 783 782 782 779 778 780 779 777 774 774 779 780 777 779 779 779 781 781 782 783 782 782 781 783 785 787 789 791
801 800 799 798 797 797 796 795 794 794 793 792 791 790 790 789 788 788 787 787 787 787 787 787 787 787 788 785 770 759 759 760 760 760 760 761 762 762 762 762 763 765 764 765 767 768 770 770 771 773 774 775 779 780 777 776 779 780 782 783 783 785 783 777 778 780 779 777 773 774 785 784 774 776 778 780 780 781 784 784 783 783 782 782 784 787 789 791
800 799 798 797 796 795 794 794 793 792 791 791 789 789 788 787 787 786 786 786 785 786 786 786 786 786 788 777 760 757 758 758 759 757 758 760 762 763 763 763 764 766 767 767 768 769 770 771 771 772 774 775 776 776 778 780 782 781 784 786 788 792 785 776 779 780 777 778 774 775 787 784 773 773 777 779 779 779 784 785 783 783 782 782 783 786 789 790
798 797 796 796 795 794 793 792 792 791 790 789 788 787 786 785 784 783 784 784 784 785 784 786 785 786 788 774 757 756 756 755 755 753 755 759 760 762 762 763 765 766 768 768 768 769 771 771 772 773 774 773 774 778 782 784 784 784 787 792 794 793 786 779 780 780 777 777 776 777 785 783 775 774 776 779 779 779 783 784 783 783 782 782 783 785 788 791
797 796 795 794 793 792 792 791 790 789 788 787 786 784 783 782 781 781 781 782 783 784 784 786 784 786 784 767 755 754 753 753 751 750 754 756 758 760 761 763 765 767 769 769 769 769 771 772 772 773 773 774 777 780 784 787 788 788 788 793 796 791 787 783 780 779 779 778 777 778 783 783 778 775 777 779 779 781 783 785 785 784 784 783 783 785 788 790
796 795 793 793 792 791 790 790 789 788 787 785 784 782 780 778 777 776 778 780 781 782 784 783 783 787 776 757 753 753 750 750 750 750 751 753 756 758 760 764 765 767 769 769 770 770 772 773 774 774 774 777 779 779 788 794 793 792 790 792 797 794 790 787 781 778 778 777 778 780 781 781 779 777 779 781 781 783 784 785 786 784 785 785 784 785 788 790
794 793 792 791 790 790 789 788 788 786 785 784 782 780 778 776 774 774 776 779 781 783 784 783 785 781 764 752 753 751 749 749 749 750 750 752 756 757 758 761 764 767 770 771 771 771 773 775 776 777 778 781 780 779 789 794 790 791 791 790 796 796 793 790 784 780 778 777 779 781 782 781 781 780 781 783 784 785 786 786 786 786 787 786 785 786 789 790
793 792 791 790 789 788 788 787 786 785 784 782 781 778 777 776 775 775 777 778 778 777 775 775 775 766 753 751 752 749 749 749 748 748 749 751 754 757 758 760 762 766 769 772 772 772 773 777 779 779 779 780 779 777 780 782 780 784 787 786 788 790 790 789 784 782 781 780 781 782 783 786 788 788 787 788 788 787 788 787 786 787 789 789 788 788 790 790
791 790 789 788 788 787 786 786 785 784 783 781 780 778 776 775 774 775 778 777 771 765 763 764 763 755 750 751 751 749 749 746 747 747 747 749 751 755 758 760 763 766 768 769 772 772 771 777 779 775 775 776 777 776 776 778 779 782 786 786 788 787 785 786 784 782 782 782 786 789 790 795 797 796 795 791 789 789 790 789 788 788 789 790 790 790 790 789
790 789 788 787 786 786 785 784 784 783 782 781 781 779 776 774 773 774 775 772 764 761 760 760 760 755 749 750 750 751 752 748 746 746 747 748 749 754 757 759 765 768 769 768 770 771 772 777 775 771 772 774 776 778 777 781 782 782 784 786 790 788 783 783 784 784 781 782 792 794 794 800 802 800 800 795 793 796 796 792 790 788 787 788 789 790 790 788
789 787 786 786 785 785 784 783 782 781 781 780 780 779 776 773 773 773 773 769 761 757 757 757 759 755 748 749 751 753 757 754 748 744 745 748 748 751 755 759 764 767 769 770 770 774 776 776 772 772 774 776 781 782 777 780 782 782 785 786 787 787 785 785 787 786 782 783 793 794 795 803 803 802 802 801 801 801 799 795 792 790 787 787 788 789 790 790
787 786 785 784 784 783 782 781 780 779 779 778 778 777 774 773 772 772 773 770 759 751 751 753 754 751 748 748 750 753 757 755 750 744 743 746 747 748 752 757 762 766 770 768 767 774 778 773 771 775 776 776 783 785 779 781 784 784 786 786 786 789 787 785 788 790 787 788 791 790 794 801 801 802 803 802 802 800 798 796 794 792 791 789 788 788 789 790
786 785 784 783 783 782 780 779 778 777 777 776 776 773 772 772 772 773 772 768 758 748 744 744 745 744 743 742 745 749 752 749 747 743 740 743 746 747 750 754 761 765 767 765 764 769 771 767 770 777 775 773 781 786 781 781 786 788 786 783 784 787 783 781 787 790 789 792 789 786 793 800 801 804 805 800 799 799 797 796 795 794 794 792 791 791 791 791
785 784 783 782 782 780 779 778 776 776 775 775 773 771 772 772 771 773 771 764 755 745 739 738 740 738 734 738 742 743 746 745 741 738 737 739 741 745 749 752 756 763 765 765 765 764 766 768 770 774 775 775 779 784 781 778 784 790 787 782 780 780 780 783 787 786 788 793 792 788 796 805 803 804 808 803 801 802 798 798 799 797 796 795 796 796 795 794
783 783 781 781 780 779 778 776 775 776 774 772 771 770 771 771 771 772 770 763 751 739 735 735 734 729 727 735 737 738 745 742 733 733 735 736 737 740 748 752 753 759 763 763 763 762 766 770 769 771 776 776 776 780 780 777 782 788 782 778 778 778 779 784 785 785 788 794 796 794 795 804 805 803 808 806 804 804 801 800 801 799 799 798 799 799 798 798
782 781 780 779 779 778 778 775 775 775 772 770 769 770 771 769 770 770 766 762 748 731 730 735 731 723 723 728 730 736 743 735 728 733 732 734 736 736 745 752 753 757 760 761 764 764 766 770 772 772 774 777 777 778 779 777 780 783 776 775 779 779 780 782 783 785 789 791 796 795 789 798 805 803 807 807 805 807 805 805 804 802 803 802 801 802 801 801
780 779 778 778 778 777 776 775 774 772 770 769 768 769 769 767 769 768 763 758 743 724 724 730 727 721 723 726 727 729 729 725 728 733 729 731 736 736 743 749 749 754 756 757 764 764 763 767 770 770 773 777 774 771 774 776 777 777 776 777 778 777 778 779 781 786 793 792 792 792 788 796 807 804 805 805 804 809 811 809 808 805 805 805 805 805 804 804
778 777 777 776 776 775 775 774 772 770 768 768 768 767 766 768 767 765 763 753 735 722 719 722 723 723 726 729 728 725 723 723 727 728 728 732 734 734 742 745 745 752 754 752 758 761 761 760 760 763 768 771 768 767 770 772 773 775 779 781 779 781 783 783 783 785 793 795 790 793 792 795 807 807 805 807 806 811 813 810 809 808 807 807 807 807 807 807
776 776 775 775 774 773 772 771 768 767 767 767 768 765 765 767 763 764 766 750 731 723 719 721 724 724 727 731 731 728 725 725 725 726 730 732 733 734 739 742 743 750 755 753 755 759 759 757 757 758 760 760 762 768 771 770 771 775 778 779 780 785 786 787 788 785 793 797 793 800 799 792 801 809 810 812 811 810 811 810 810 809 809 809 809 809 809 809
774 774 774 773 773 772 770 768 765 765 767 766 766 765 765 763 759 765 763 741 730 729 723 724 726 724 727 728 729 729 727 727 725 727 732 733 735 738 740 744 747 752 759 759 758 760 760 760 759 756 754 756 760 769 774 772 773 774 773 775 782 788 787 788 791 790 798 801 797 806 805 790 796 809 812 813 810 809 810 811 811 811 811 812 812 812 812 812
772 771 771 771 770 770 768 765 763 764 765 764 765 764 761 762 763 763 750 731 733 737 727 726 726 724 727 724 725 727 726 727 726 725 730 733 736 739 739 743 747 755 765 763 761 763 761 758 758 755 754 754 758 769 777 776 774 774 773 775 783 792 796 797 796 796 798 797 799 807 802 795 804 811 811 811 810 811 811 810 811 812 813 815 815 815 815 815
770 769 768 768 767 765 764 763 763 764 764 764 766 761 758 765 765 753 741 733 739 741 732 728 724 722 726 725 725 726 724 726 727 725 727 730 735 739 740 741 740 746 758 762 763 765 763 759 756 757 756 750 751 764 775 777 775 774 773 772 779 790 802 808 808 805 799 795 801 804 799 806 817 814 810 811 811 811 812 812 813 814 816 817 817 817 817 817
768 766 764 763 762 761 760 761 762 763 765 765 763 757 759 767 758 742 739 737 738 742 738 731 726 722 724 723 721 722 725 728 726 726 729 732 737 741 742 743 740 741 751 760 763 763 766 766 756 753 754 749 749 754 760 767 770 771 769 767 773 780 788 799 800 798 796 795 800 802 802 811 818 814 811 810 810 810 812 814 814 815 817 817 818 818 819 820
764 763 761 759 757 756 756 758 760 762 766 764 757 755 759 761 750 741 743 740 739 745 741 732 729 728 724 721 719 717 720 726 726 727 730 732 736 740 739 740 741 741 747 758 763 761 764 762 748 746 749 745 747 749 750 760 770 773 770 770 773 768 773 794 802 797 794 793 801 811 815 815 814 815 814 811 811 813 813 815 816 818 819 819 820 822 822 823
761 759 757 755 753 752 752 755 757 760 764 760 754 755 756 750 743 743 745 743 742 746 742 733 727 727 725 721 721 718 716 721 725 728 732 733 733 736 736 735 737 739 740 749 759 761 762 758 748 749 750 743 743 746 748 755 764 773 774 772 772 764 767 790 806 807 798 792 808 824 822 817 816 816 814 812 813 814 815 817 819 821 822 824 826 826 826 826
759 757 755 752 750 750 751 752 755 759 761 756 752 752 748 742 739 740 741 742 742 742 745 740 726 720 724 721 720 719 716 720 725 728 733 736 734 735 735 733 733 734 733 738 749 753 754 754 751 748 747 745 743 743 748 749 752 766 770 765 766 768 770 776 792 805 798 796 816 826 819 815 815 814 812 811 812 815 817 819 821 823 824 827 830 829 829 830
758 756 752 749 748 748 750 751 754 757 757 755 752 747 742 740 736 735 736 738 740 741 745 744 727 715 718 720 719 716 714 721 726 728 733 736 734 732 731 732 732 731 729 730 740 747 748 751 753 747 745 748 745 745 754 755 750 754 755 754 760 770 774 777 787 796 797 809 825 825 821 817 809 809 811 809 810 814 817 820 822 826 828 829 831 830 831 832
757 755 750 747 747 747 748 751 753 755 755 755 753 746 740 739 735 732 735 736 738 743 743 738 727 718 715 716 718 716 715 720 725 728 731 733 732 730 727 728 730 731 729 727 735 746 748 751 755 750 747 749 746 747 756 758 755 753 752 754 757 762 766 772 779 780 787 813 825 822 827 817 800 802 805 804 808 813 817 822 825 828 830 831 832 832 833 833
756 754 749 746 747 747 748 751 753 754 753 751 750 745 740 738 735 733 734 734 736 741 739 731 726 721 716 714 715 715 716 720 722 726 729 728 730 732 727 726 728 731 731 730 735 744 746 749 753 752 749 749 748 749 749 750 753 756 758 760 762 766 766 768 779 781 783 803 816 821 826 812 796 799 799 798 806 812 816 821 826 830 831 832 833 834 834 835
756 752 748 747 748 748 749 751 751 751 750 748 747 745 740 737 736 734 732 733 733 733 732 727 724 723 719 715 714 713 716 721 721 724 729 728 729 731 728 726 727 729 733 735 736 740 743 745 751 752 751 750 750 751 749 745 745 748 752 755 757 763 764 768 785 790 784 793 804 810 811 803 801 803 797 796 804 812 816 819 825 831 831 833 835 834 836 836
754 750 747 748 749 749 750 750 750 748 747 746 744 742 738 736 736 734 731 732 732 730 728 724 722 722 718 713 712 711 716 723 722 722 726 728 729 730 728 728 728 725 729 734 734 736 739 742 748 753 753 752 751 752 753 751 747 745 750 753 752 752 754 762 778 786 789 797 801 798 796 798 805 805 799 801 807 813 816 817 824 831 831 834 836 836 838 838
752 749 748 749 750 750 750 749 749 749 746 744 741 738 737 736 735 733 732 733 733 729 727 722 716 715 714 710 710 710 714 723 726 724 726 729 729 728 727 729 729 725 726 733 734 735 739 743 749 754 754 750 749 750 752 752 750 750 756 762 759 754 753 757 764 771 785 798 795 792 795 799 805 809 807 810 812 816 819 820 825 831 832 835 837 838 840 841
752 750 749 751 751 751 750 746 746 747 744 742 741 738 736 735 733 732 732 732 729 726 723 719 712 711 712 709 708 711 713 721 728 727 726 730 728 726 726 727 726 724 724 729 729 730 739 746 750 755 761 760 757 755 753 750 753 759 766 769 767 762 759 760 765 767 779 794 789 783 792 800 806 812 813 815 818 821 824 825 828 832 834 837 839 840 842 843
752 750 750 752 752 752 750 746 745 745 744 745 745 739 736 734 729 728 729 727 723 722 721 717 712 711 711 709 709 713 713 715 723 727 728 730 728 726 727 726 725 724 725 726 722 725 744 758 753 751 761 767 764 762 760 758 760 767 773 773 770 768 760 758 767 768 775 793 790 778 787 804 810 813 816 819 822 825 829 830 831 833 836 838 840 842 843 844
752 750 752 754 753 752 749 746 746 745 744 746 744 739 737 734 727 724 725 723 719 719 719 717 713 709 709 708 711 716 716 713 716 723 727 728 727 727 727 726 725 725 725 727 726 731 753 772 767 756 756 761 763 768 771 768 764 767 773 775 775 777 768 759 764 766 772 790 791 779 787 804 810 812 815 820 824 827 831 834 834 835 837 839 842 843 845 846
752 749 751 752 752 751 749 747 746 745 744 742 739 737 737 735 729 724 721 718 716 716 716 716 715 711 709 710 712 718 721 717 716 722 727 728 727 728 727 726 726 725 725 728 732 736 750 769 775 772 773 774 777 781 779 774 773 776 779 780 780 782 772 758 760 767 770 778 783 784 791 798 803 809 814 819 824 828 832 835 835 837 839 840 843 845 846 847
751 749 747 746 747 747 746 744 743 744 744 742 739 739 737 734 730 725 721 715 713 714 712 712 716 716 713 710 712 718 722 721 723 727 727 726 727 727 727 727 728 727 727 730 735 737 748 766 776 777 781 784 783 783 780 778 783 787 786 786 785 784 775 768 777 786 778 769 773 783 791 795 801 810 815 819 824 829 834 836 837 838 839 842 845 846 847 847
751 750 747 744 744 744 742 741 741 742 743 742 740 739 737 733 728 725 723 717 713 713 712 713 717 719 716 711 710 717 722 722 725 728 727 726 727 727 728 730 730 729 727 731 738 740 749 768 776 773 779 786 784 783 782 781 785 789 791 791 789 787 785 784 793 798 790 781 781 785 794 805 812 817 822 826 829 831 835 838 839 840 841 844 847 847 848 848
750 750 748 745 744 743 742 741 740 741 743 741 738 737 737 733 726 723 724 721 716 713 714 718 720 718 716 713 712 718 725 722 719 723 726 725 726 727 729 730 731 731 730 735 740 740 746 765 775 771 776 787 788 786 783 781 785 791 795 795 791 789 791 792 795 797 794 793 794 794 802 816 824 826 828 831 832 834 838 840 841 842 843 846 848 848 848 848
750 749 748 746 744 742 742 742 741 741 741 739 736 736 736 731 725 723 724 724 722 718 716 719 719 717 716 717 718 723 727 723 720 722 725 725 726 729 731 732 732 730 732 739 743 740 745 765 775 769 770 785 791 790 788 784 782 787 795 800 797 795 796 798 800 800 794 794 799 800 803 816 826 829 831 833 835 838 840 841 843 845 846 848 848 849 849 848
750 748 747 746 744 741 741 742 741 738 735 734 732 732 732 728 725 724 723 722 723 723 723 722 718 717 719 721 723 726 726 726 727 728 730 729 731 734 736 737 737 734 734 741 748 749 749 758 766 762 768 785 789 788 791 784 773 779 796 806 805 801 800 802 804 804 799 796 798 799 803 816 827 828 830 836 839 840 842 844 846 847 848 849 849 849 849 849
Wind_Speed
13 13 12 12 13 13 13 13 12 12 12 12 12 12 12 12 12 13 13 12 13 13 14 14 14 15 15 15 16 16 18 18 19 17 14 21 17 12 13 11 4 8 12 11 16 15 10 8 8 9 7 4 1 2 3 1 1 2 2 2 3 3 3 4 5 4 0 3 4 6 7 5 3 3 2 1 5 5 5 5 4 5 5 3 5 12 20 21
13 13 12 12 13 13 13 13 12 12 12 12 12 12 12 12 12 13 13 13 13 13 14 13 14 14 15 15 16 17 18 18 16 16 26 27 19 18 17 15 10 10 15 16 19 17 11 6 7 8 5 3 1 1 3 2 2 3 2 3 5 4 2 3 3 2 2 4 6 8 5 4 4 2 1 1 3 3 4 4 3 4 5 6 9 15 18 20
12 12 13 13 13 13 13 13 13 13 12 12 12 12 12 12 12 12 13 13 13 13 14 14 14 14 15 15 15 17 17 14 9 13 24 23 19 22 21 21 16 13 16 16 19 18 14 13 13 9 3 2 2 1 3 3 3 3 2 4 5 4 3 3 3 5 4 4 7 8 4 3 4 1 1 1 4 3 4 3 3 3 5 7 11 15 17 19
12 12 13 14 14 13 13 13 13 13 13 12 12 12 12 12 12 13 13 13 13 13 14 14 14 14 14 15 14 16 13 7 4 6 8 5 6 9 14 23 20 16 17 15 16 14 14 16 12 6 3 3 1 2 5 4 3 3 3 5 3 2 4 4 5 6 4 2 4 5 6 5 3 2 2 4 5 2 4 4 4 5 10 12 12 15 17 18
12 12 13 13 13 14 14 13 13 12 13 12 12 12 12 12 12 13 13 13 13 13 13 14 13 14 14 14 13 12 7 3 2 1 3 6 5 8 6 16 20 19 18 17 15 12 14 14 8 3 2 3 4 3 5 5 3 3 3 4 3 3 4 4 3 4 2 2 2 4 7 5 3 2 3 6 3 1 2 5 4 5 12 15 15 16 16 16
13 12 12 13 13 14 14 14 13 13 13 13 12 12 12 12 11 12 12 13 13 12 13 13 13 13 14 14 10 6 2 3 4 2 4 4 11 14 9 9 19 22 22 19 16 14 12 11 8 5 3 3 7 6 4 4 3 4 3 2 5 5 5 3 1 3 3 2 3 3 4 3 4 4 1 4 3 3 5 5 3 6 12 14 15 16 15 15
15 13 13 13 14 15 15 14 14 13 13 13 13 12 12 12 12 12 12 12 12 12 12 12 12 12 13 11 4 2 1 7 12 7 6 15 19 17 10 8 20 26 25 20 15 12 10 10 9 6 5 4 5 8 4 5 4 5 4 3 5 5 7 5 4 4 2 3 4 3 2 2 4 2 1 2 3 4 3 1 6 9 12 13 13 13 13 14
14 14 15 15 15 16 15 14 15 13 13 13 13 12 12 12 12 12 12 12 12 12 11 11 11 11 11 8 2 1 0 13 23 18 18 21 20 17 7 11 23 27 25 23 18 13 10 12 10 5 6 4 5 8 5 5 5 7 7 3 3 4 5 5 6 6 3 4 4 4 2 4 5 2 2 1 3 2 3 6 9 10 11 11 11 12 12 12
13 14 15 15 16 16 14 14 14 14 14 13 13 13 13 13 12 13 12 12 12 11 10 10 9 9 10 6 2 2 5 12 18 16 17 17 14 11 7 14 26 27 22 23 21 16 11 10 10 6 6 4 6 8 6 6 5 7 9 4 5 5 3 3 6 5 2 2 4 5 2 3 3 1 2 1 2 3 5 7 8 9 10 10 10 11 11 11
13 15 16 16 15 15 14 13 13 14 14 13 13 13 13 13 13 13 12 12 11 10 10 9 8 7 7 2 2 3 5 7 9 9 9 9 7 7 12 17 28 26 18 18 19 17 10 8 9 4 3 4 5 6 6 7 3 5 9 6 8 6 3 3 5 4 2 3 6 6 1 3 2 2 2 3 4 5 6 7 7 7 8 9 9 9 10 10
14 15 17 17 15 15 15 13 12 13 13 13 14 14 14 14 14 13 13 12 10 10 8 7 7 5 3 0 2 5 3 3 3 4 8 6 5 10 14 21 29 26 20 14 15 18 9 8 9 3 2 4 6 5 4 6 2 4 7 5 7 5 4 5 6 5 3 3 4 5 2 2 3 3 1 4 8 6 6 7 6 6 6 8 9 8 8 9
14 16 18 18 16 15 15 13 12 13 14 14 14 15 14 14 14 13 13 12 10 9 7 7 5 3 2 1 6 12 7 2 2 6 10 6 3 7 9 22 27 23 24 14 12 17 9 12 14 3 2 5 7 4 3 5 3 4 5 3 4 2 5 7 4 2 2 2 2 5 3 1 3 3 2 4 9 7 6 7 6 6 5 6 8 8 7 9
15 16 18 17 16 15 15 14 13 14 14 15 15 15 15 15 14 13 13 12 10 8 7 6 4 3 2 2 10 16 14 11 8 7 6 3 2 2 4 20 22 15 20 14 13 16 9 14 15 4 2 4 4 2 1 3 2 3 4 3 3 2 4 3 0 1 3 2 2 5 3 2 3 1 3 6 10 9 7 6 6 5 5 6 7 7 7 9
16 16 17 16 16 14 13 14 14 15 15 16 16 16 16 16 15 14 13 12 10 8 7 5 3 3 3 7 13 12 14 18 18 21 21 14 10 6 4 16 17 9 10 7 10 16 10 10 10 4 2 2 2 1 1 2 1 3 4 2 1 2 3 1 2 2 4 1 1 5 3 2 3 1 3 7 10 10 9 7 7 6 6 6 6 7 8 8
16 17 16 14 14 14 13 13 14 15 16 16 17 17 17 17 17 16 13 11 9 7 5 2 4 3 1 10 14 8 9 14 20 26 23 17 12 8 7 13 15 10 7 4 5 12 11 6 5 5 2 1 2 2 1 1 1 1 4 3 1 2 2 2 1 3 2 2 1 4 3 1 3 2 2 5 9 7 7 8 8 7 7 6 5 6 7 7
16 17 15 13 13 14 14 14 15 15 16 17 18 18 19 19 18 17 14 12 8 5 3 3 6 5 2 6 6 3 6 8 13 16 16 18 14 10 10 11 10 9 7 4 3 6 10 5 2 2 2 2 2 2 2 2 2 1 3 3 3 4 2 1 2 1 1 1 1 2 2 2 1 3 4 5 10 6 5 7 8 8 7 7 5 5 6 7
16 16 16 14 12 12 13 14 15 15 16 17 18 20 21 18 16 14 10 7 6 7 6 3 6 6 5 6 4 4 5 7 9 8 10 19 17 13 12 7 5 6 5 4 2 4 7 5 2 1 1 2 2 4 4 5 4 2 1 2 2 3 3 1 2 1 2 2 3 0 1 3 1 5 6 4 7 6 5 5 8 8 7 7 5 4 5 6
15 16 16 14 13 13 13 14 15 15 16 16 19 21 17 10 4 2 7 10 8 7 4 2 5 4 5 6 5 3 3 4 6 6 9 15 17 16 14 7 6 9 6 3 3 3 4 2 2 3 3 3 3 6 6 4 5 4 4 3 2 2 2 1 1 0 2 1 4 4 3 3 2 6 7 5 2 3 3 2 5 7 6 7 6 4 3 4
15 16 15 14 13 13 14 15 15 15 16 17 19 16 6 4 6 8 11 11 7 4 3 5 7 2 2 3 2 4 9 8 5 5 9 14 17 15 11 8 9 10 7 5 5 5 4 3 3 6 6 5 5 7 6 4 5 6 5 4 5 4 2 1 1 1 1 1 4 4 2 2 5 7 8 8 5 0 2 1 3 6 6 6 5 4 2 5
14 14 14 13 12 13 14 14 14 15 15 15 18 12 0 3 2 4 5 6 7 3 2 5 10 4 3 1 2 10 11 4 2 3 12 17 18 14 8 7 7 5 6 7 7 4 4 6 7 7 7 7 6 6 5 4 5 6 5 4 4 4 3 1 1 1 1 1 3 4 5 7 7 8 10 8 4 3 1 1 2 4 5 5 6 5 5 7
14 14 14 13 12 13 14 14 14 15 14 15 14 8 1 1 1 1 2 7 12 12 9 7 12 10 9 4 4 11 9 2 2 2 12 17 18 14 6 6 8 5 4 5 6 4 4 7 7 6 6 7 6 5 6 5 5 5 5 4 3 3 3 2 1 1 1 1 2 6 9 8 7 8 10 9 7 7 4 1 1 3 6 7 7 7 6 6
14 14 14 13 13 14 14 14 13 15 17 16 10 5 4 2 3 3 2 5 9 15 16 11 10 13 16 13 8 5 4 5 6 3 10 15 13 11 6 7 8 6 4 4 5 5 6 7 6 5 5 6 5 4 6 6 4 3 3 3 3 2 1 1 1 2 1 1 2 7 10 7 5 6 9 10 8 7 6 3 2 1 4 6 7 8 7 6
15 14 13 13 13 14 14 13 14 17 16 11 6 6 3 3 2 6 3 4 6 9 12 12 12 13 13 12 10 6 4 6 6 4 11 16 9 8 9 8 8 6 7 8 8 7 6 6 6 5 6 7 6 3 6 6 2 2 3 3 3 2 2 3 2 2 2 3 3 9 10 5 4 3 6 9 8 7 7 7 7 5 1 2 3 4 5 7
16 15 14 13 12 14 14 15 16 13 8 6 9 9 4 0 6 9 2 3 5 4 8 12 11 10 11 9 9 12 8 6 5 3 11 16 7 6 9 8 8 7 7 9 9 8 6 5 7 7 5 7 6 4 6 5 3 1 3 4 3 3 3 2 2 1 1 3 2 8 7 4 4 3 5 7 7 8 8 8 9 8 6 6 5 4 4 5
15 15 15 13 12 13 15 16 11 5 5 7 9 5 1 4 8 5 2 2 4 3 5 8 6 7 10 9 10 12 6 6 7 5 10 16 10 7 6 5 5 8 9 9 9 8 5 5 9 8 4 5 7 5 5 6 5 2 4 6 5 5 4 1 2 1 2 3 2 2 3 3 3 4 6 7 7 9 8 9 10 9 8 8 7 7 7 7
13 14 15 13 11 13 14 9 3 5 9 7 5 3 1 7 10 3 3 2 3 2 3 6 5 9 11 10 10 9 4 5 9 10 10 14 11 6 6 4 1 6 9 8 6 3 3 5 7 8 7 6 6 5 4 5 5 3 4 6 5 4 4 4 3 2 1 3 1 1 1 3 1 3 7 6 6 9 8 9 10 9 9 8 8 8 8 9
12 14 15 12 10 12 9 4 5 9 7 3 3 4 4 13 9 4 3 2 3 2 5 2 2 10 11 10 14 10 4 2 5 9 10 14 11 3 7 8 2 4 5 4 5 2 5 8 5 7 7 5 5 5 5 6 6 2 3 8 8 6 6 6 4 3 1 1 2 1 1 3 3 2 6 4 5 9 9 9 9 8 9 9 9 10 10 11
14 14 14 11 11 11 9 9 11 10 6 3 3 6 12 15 3 5 1 1 3 0 4 2 2 7 6 10 16 8 2 4 6 7 11 17 11 1 6 9 7 8 5 5 7 3 5 9 8 9 7 4 5 4 7 9 6 2 3 7 7 6 5 4 4 3 0 1 3 2 1 2 3 1 4 2 5 9 8 8 9 9 9 9 10 11 11 12
15 14 13 12 12 13 12 12 11 10 8 5 8 13 16 8 3 3 2 1 3 2 3 4 4 5 5 9 13 6 1 3 2 4 9 12 8 1 4 6 7 10 4 2 5 2 2 7 9 10 7 5 5 4 9 12 5 2 6 6 4 3 2 1 2 3 2 3 4 3 2 2 3 0 2 3 5 6 6 7 9 9 9 9 10 11 11 11
16 14 13 13 13 11 10 12 15 13 8 7 12 16 10 1 3 2 1 1 2 1 2 2 2 5 9 10 9 6 2 1 2 6 6 6 4 1 2 3 5 8 3 0 3 2 1 1 3 5 5 5 5 4 6 9 5 7 9 7 5 3 2 1 1 1 3 4 2 0 3 1 3 1 1 2 3 4 4 5 7 8 10 10 10 10 11 11
17 14 12 12 13 11 8 9 8 3 1 9 16 12 1 3 1 2 4 2 1 2 1 2 3 6 12 11 8 7 4 1 5 10 8 5 4 3 4 4 3 5 4 2 4 1 2 4 3 3 2 4 6 5 2 2 5 6 5 5 5 3 1 2 1 1 4 4 1 1 3 1 2 1 1 1 3 4 3 4 6 8 10 10 10 10 10 10
16 15 14 14 14 14 12 9 3 2 6 15 16 6 3 2 2 3 3 1 1 3 4 1 2 6 10 7 7 9 7 3 5 11 11 9 7 5 5 6 5 6 5 5 5 2 1 3 1 1 1 4 7 6 3 3 5 4 3 6 7 4 3 4 3 3 4 2 2 1 2 1 2 2 3 4 4 4 3 5 7 9 10 10 10 10 9 10
16 17 18 18 17 19 21 18 15 15 16 15 8 2 2 2 3 4 4 2 2 3 5 5 3 6 10 6 6 8 6 4 5 8 10 8 9 6 2 2 5 4 4 5 5 4 4 2 2 2 2 3 8 8 5 5 6 6 6 8 8 5 5 6 3 2 2 2 2 2 2 2 2 1 3 4 4 3 5 7 9 10 10 10 10 9 9 11
18 19 21 21 21 23 24 22 20 17 12 8 2 2 3 3 3 3 5 2 3 3 5 7 8 3 10 6 6 10 5 2 6 8 8 8 8 6 3 3 5 3 2 4 3 5 7 3 5 7 3 5 9 7 7 8 7 6 3 4 5 3 4 4 3 3 3 3 3 1 0 3 3 3 3 3 2 4 7 8 9 10 9 9 9 10 10 11
20 21 21 21 21 22 20 18 15 10 5 3 2 3 4 5 2 1 3 2 3 3 7 10 10 4 8 5 5 11 4 1 7 7 6 9 7 6 6 6 6 3 4 5 2 3 5 2 4 4 1 7 11 6 6 9 6 4 1 1 3 3 3 3 1 1 2 3 2 2 1 2 2 3 4 3 4 6 8 9 10 10 9 9 9 10 10 10
21 20 18 16 16 14 10 9 11 11 6 2 3 4 4 3 1 0 1 1 2 5 10 10 6 5 7 4 7 11 3 2 8 6 4 7 6 6 6 5 6 5 4 5 2 2 3 1 1 2 2 7 9 7 6 5 5 4 3 4 2 1 4 4 2 2 1 3 2 2 2 3 3 4 6 7 7 9 9 8 9 9 9 9 8 8 9 9
20 18 13 13 14 10 5 8 15 14 6 2 4 5 3 3 2 3 3 2 0 4 8 6 2 4 6 4 7 12 6 4 6 4 4 4 3 5 6 4 5 6 5 3 1 2 3 2 0 2 6 4 2 7 5 0 3 5 6 6 4 2 2 3 3 2 1 3 2 1 2 4 4 4 7 10 10 10 9 8 9 9 9 9 8 7 8 8
18 13 10 12 11 7 6 13 18 12 3 2 4 4 3 3 3 3 3 2 2 6 6 4 3 2 5 4 5 10 8 5 5 4 4 3 1 4 6 4 5 7 6 3 1 1 2 2 1 2 4 3 2 6 5 1 0 2 5 6 3 2 3 2 2 3 3 3 2 1 0 3 5 4 8 12 11 10 10 9 8 8 8 7 7 8 9 9
13 7 5 5 3 5 12 19 16 6 1 3 4 3 2 2 4 4 5 5 5 6 5 5 4 2 3 3 4 6 5 5 7 4 3 3 1 2 4 3 4 7 6 4 2 1 0 2 2 1 0 3 3 4 5 5 1 2 4 5 0 1 3 2 1 2 4 4 2 2 1 4 4 4 9 13 11 10 10 9 8 7 7 7 7 8 8 8
7 3 1 2 2 9 17 17 8 2 2 3 3 2 1 1 4 6 6 6 4 2 5 6 4 2 2 2 4 4 3 4 7 3 1 2 1 0 3 1 4 5 4 2 2 1 0 1 3 2 0 3 4 3 4 7 6 4 6 6 2 1 1 2 2 2 2 4 4 3 2 4 1 2 8 13 11 10 11 10 8 6 7 7 7 7 7 8
4 2 0 2 7 16 17 9 3 3 3 2 1 1 2 1 4 6 5 5 5 4 7 9 7 4 2 2 4 4 3 3 4 2 1 2 1 0 2 1 4 6 3 2 2 2 1 0 2 3 3 3 2 0 2 4 4 6 7 6 4 4 4 5 3 1 2 2 3 4 3 3 1 1 6 10 10 10 11 12 10 7 7 8 8 8 8 8
3 1 1 3 14 17 9 2 1 2 2 1 1 2 2 2 3 4 3 3 5 5 6 8 7 5 3 2 3 3 3 2 1 1 2 2 2 1 1 1 3 6 6 3 1 2 1 1 2 3 2 1 1 2 0 1 3 4 3 3 4 4 4 6 5 3 2 2 2 2 1 1 2 1 3 8 11 10 9 11 11 7 7 8 8 8 8 8
2 1 2 7 16 10 0 1 2 1 2 1 1 2 2 2 2 2 2 2 4 4 4 4 4 4 3 2 2 3 4 2 1 1 2 2 2 2 1 2 4 6 5 2 2 3 2 1 2 2 2 1 2 2 2 2 3 4 3 2 2 2 2 3 3 4 4 3 3 3 2 1 3 4 6 9 12 10 8 10 11 8 7 8 8 8 7 7
1 2 2 8 12 2 3 3 2 2 3 1 2 2 2 2 3 3 4 5 5 3 3 3 3 2 3 1 3 3 3 2 1 1 2 1 2 0 2 3 6 5 3 3 4 4 2 0 2 3 3 3 3 4 3 2 2 2 3 2 1 3 5 4 3 3 3 3 3 4 3 1 4 6 7 10 12 11 10 10 9 8 7 7 7 7 7 7
2 1 3 5 6 3 2 1 0 1 2 0 1 2 2 2 4 6 7 8 7 4 2 3 3 1 1 1 3 3 2 2 1 1 1 1 1 1 3 1 3 2 1 2 4 4 2 1 0 3 4 4 3 3 2 2 2 2 2 3 3 3 4 4 4 3 4 3 3 4 3 2 4 7 9 9 11 11 10 9 8 8 8 8 7 7 6 7
1 1 2 2 3 3 2 2 2 1 2 1 1 2 3 3 3 4 7 7 6 5 3 3 3 1 1 2 4 4 4 3 3 2 2 2 2 1 2 2 3 5 8 9 7 5 4 3 3 3 3 2 2 1 2 0 3 2 2 3 4 3 2 2 4 3 4 5 3 2 4 7 9 9 10 10 9 10 9 8 8 8 9 8 7 7 7 6
2 1 2 3 2 3 3 3 3 2 1 2 2 2 3 3 4 2 5 4 3 3 3 1 1 2 1 2 4 3 3 4 5 4 2 1 2 1 2 3 4 6 9 8 4 2 5 3 4 8 7 4 3 2 2 3 4 4 3 3 3 3 2 2 4 3 5 7 4 3 7 11 12 12 12 11 10 10 9 8 8 8 8 8 7 7 8 7
1 1 0 1 1 2 3 3 4 4 2 2 2 1 1 1 3 2 3 3 1 1 1 1 4 4 2 1 4 3 2 4 5 2 2 2 2 2 2 4 4 3 3 4 3 2 5 3 2 6 9 7 5 4 5 8 9 8 7 6 5 4 2 3 3 2 2 2 2 7 12 9 9 12 11 10 10 10 9 8 8 8 9 9 8 7 8 7
1 1 2 2 2 2 2 1 4 5 5 3 2 1 1 1 3 3 2 2 2 3 2 2 5 6 3 1 3 3 1 3 3 1 1 2 2 1 2 4 3 3 2 4 3 1 3 4 4 7 10 10 7 5 5 8 10 10 11 9 7 7 7 7 6 5 4 3 2 11 14 7 5 8 9 10 10 10 10 8 7 9 10 8 8 8 7 7
0 1 2 1 2 2 1 0 2 4 3 3 2 1 1 2 3 2 1 1 2 4 3 4 2 4 6 6 6 4 0 2 4 3 2 2 2 1 1 2 1 3 3 3 2 1 1 4 4 3 6 7 7 7 7 8 10 11 11 10 8 8 9 8 7 5 6 6 7 14 14 7 4 7 10 10 9 9 9 9 8 8 8 8 8 8 7 7
3 4 3 2 2 1 2 1 1 3 2 2 2 1 1 3 2 1 1 1 1 3 2 3 3 4 7 10 10 6 2 1 5 5 3 3 3 2 1 1 1 1 3 2 2 2 2 5 3 1 4 3 3 5 6 7 11 12 11 10 9 6 6 6 6 3 3 9 13 12 9 6 5 8 10 10 9 10 10 9 8 7 7 8 8 7 7 7
5 4 3 2 2 1 2 1 1 2 2 2 3 3 2 3 3 1 2 2 3 4 3 0 1 4 6 8 8 4 1 3 7 7 6 7 8 7 5 5 5 3 3 2 2 2 2 6 4 1 4 3 1 1 2 3 6 7 5 5 5 5 6 6 7 7 4 7 9 5 5 8 9 9 10 10 9 9 9 8 6 6 7 7 7 8 7 7
Wind_Direction
334 331 328 325 321 322 323 325 325 323 324 325 327 329 329 329 328 329 329 328 329 329 330 332 333 333 333 332 334 329 325 322 315 313 274 255 261 253 254 268 263 195 190 173 160 146 125 133 131 137 141 127 143 154 165 170 146 183 178 193 201 197 208 192 193 186 205 323 319 332 347 335 325 101 132 83 77 89 96 78 71 62 51 65 101 128 139 142
331 330 332 330 326 322 321 324 324 324 323 322 324 325 327 326 326 328 327 328 328 327 330 332 332 333 332 333 334 326 325 321 311 289 263 261 269 266 259 253 248 205 183 172 169 157 141 149 144 143 141 142 154 140 174 178 181 192 143 203 213 196 213 197 199 198 245 307 322 323 331 330 318 112 138 287 102 121 132 105 109 95 77 100 122 134 140 143
329 329 330 329 328 324 321 321 322 324 324 325 324 322 324 323 325 325 325 327 327 328 329 330 332 333 331 333 330 322 324 322 304 272 271 276 269 261 256 248 241 212 195 185 177 173 167 162 152 144 131 146 141 145 176 174 186 192 171 217 221 204 248 230 215 234 234 290 314 315 325 336 321 341 318 225 151 191 196 147 150 169 148 137 138 142 146 148
331 331 330 327 326 325 324 321 320 320 319 323 324 323 322 321 323 322 324 325 325 327 327 330 333 331 332 332 325 321 325 311 264 259 282 306 276 263 249 241 232 210 201 187 175 175 167 154 147 141 134 149 133 151 177 185 180 177 197 225 217 173 251 230 210 239 237 260 284 310 319 328 345 338 272 186 160 200 230 211 201 193 171 158 154 153 153 152
331 332 333 328 324 322 322 322 321 320 319 321 322 322 320 321 322 320 323 323 323 325 325 330 331 332 334 330 326 327 322 279 298 225 124 79 17 354 296 237 220 202 187 176 165 153 147 142 136 127 136 156 153 163 191 192 166 175 202 241 228 173 248 244 211 231 188 187 240 311 309 321 336 303 226 198 178 112 267 253 233 185 166 162 160 158 157 157
331 331 333 330 327 322 320 320 319 318 318 319 321 321 319 319 320 321 322 321 323 323 324 328 330 335 332 330 338 340 272 257 335 117 143 352 331 341 336 234 204 190 179 172 156 143 137 140 154 160 162 163 170 183 186 171 180 209 201 244 238 216 239 262 242 207 157 191 258 288 296 333 318 313 206 222 297 339 308 285 205 153 155 157 158 159 161 161
330 331 332 331 328 322 319 318 318 319 316 315 317 319 319 318 317 320 320 319 321 319 324 326 329 335 331 336 352 28 61 268 274 247 273 305 308 319 320 216 189 182 179 167 151 154 145 153 173 161 163 160 180 198 174 147 186 228 218 228 235 219 234 253 268 245 206 237 249 250 286 298 268 301 141 218 323 331 321 74 129 135 146 150 154 160 163 162
329 332 331 330 324 318 317 314 314 317 315 313 313 315 316 315 315 316 317 317 318 318 321 323 329 334 331 346 30 1 248 254 264 271 291 297 300 306 283 187 180 179 178 170 162 160 146 161 173 150 176 181 183 192 166 151 179 222 222 227 239 223 232 247 266 270 260 248 232 219 227 222 223 184 155 196 6 11 91 107 119 130 144 146 153 159 162 161
330 332 328 325 322 318 317 316 312 311 312 313 311 311 311 311 311 312 314 314 316 317 317 320 327 328 327 351 71 275 245 255 273 288 295 290 294 285 222 180 179 177 174 173 166 158 155 172 178 173 189 175 176 182 175 189 192 210 210 214 239 241 260 262 269 271 269 255 203 205 186 181 223 171 157 115 75 138 123 114 125 136 146 148 154 158 158 160
332 334 329 326 324 316 312 313 313 311 311 310 308 309 308 306 305 307 311 310 312 313 314 317 320 323 323 338 146 245 259 280 294 302 306 295 286 224 197 183 177 174 168 166 164 165 173 179 173 175 167 147 175 169 174 197 176 184 198 221 240 254 308 272 270 273 289 267 216 217 167 127 204 192 163 119 132 153 128 122 136 145 151 155 158 157 158 157
331 332 330 329 324 312 309 313 315 313 310 309 307 307 306 304 303 305 306 305 307 308 309 310 314 322 311 308 174 222 264 336 343 16 14 334 246 190 192 182 173 173 164 157 173 178 173 160 155 145 158 158 167 157 183 194 144 166 181 215 239 263 279 247 264 273 275 269 209 198 180 140 184 177 104 123 145 155 133 134 150 156 159 166 163 158 160 157
328 328 326 325 319 312 314 318 316 313 311 309 306 304 304 303 302 302 301 302 300 300 303 300 307 298 256 231 231 231 240 282 87 53 40 28 183 181 194 178 171 174 167 161 185 182 168 161 161 158 170 152 152 155 199 183 143 163 170 206 227 255 253 232 253 266 224 254 169 174 181 167 193 156 90 134 149 150 137 143 159 170 177 176 170 164 163 163
326 325 322 318 313 312 317 317 315 315 312 309 306 305 303 301 300 299 298 297 293 293 295 292 290 254 217 226 244 242 247 250 255 282 292 310 219 244 204 175 172 179 176 176 183 178 173 175 176 169 155 158 152 150 146 143 139 158 163 229 231 223 239 218 88 155 200 236 197 205 210 193 228 184 128 156 156 149 140 156 172 181 194 187 179 173 166 167
324 323 318 314 311 311 313 313 315 313 310 309 307 304 302 300 298 294 292 289 285 286 285 275 246 217 197 250 263 263 262 260 261 260 257 259 251 258 228 181 183 191 178 174 178 181 181 173 174 153 155 183 133 142 99 90 127 158 152 200 237 212 217 96 67 178 189 179 229 233 218 186 254 316 122 162 169 158 149 170 184 188 201 199 190 180 171 170
324 319 312 311 314 316 316 317 317 312 309 308 305 306 303 298 294 289 285 279 274 272 269 229 200 193 232 270 275 275 258 257 256 252 251 249 230 223 219 193 197 206 180 129 147 186 191 170 163 162 165 163 127 170 169 100 77 126 173 174 150 206 214 28 94 195 205 69 36 237 203 196 276 322 45 167 185 175 158 174 190 199 204 203 197 185 171 166
322 316 310 311 313 318 322 320 318 313 311 309 307 306 300 297 295 286 276 267 259 231 202 182 187 191 264 278 283 271 232 236 251 256 247 232 217 202 193 181 190 204 195 177 110 164 183 181 172 161 141 150 164 160 143 166 154 83 216 173 144 194 205 52 112 204 288 127 132 259 185 146 279 337 15 153 180 188 172 180 199 209 210 212 213 193 167 160
319 313 312 314 313 318 320 316 314 313 312 312 311 307 303 304 296 281 262 234 213 181 174 162 170 188 256 275 287 268 238 233 245 258 230 217 212 190 167 151 160 169 172 187 141 122 158 183 202 139 127 141 155 162 170 192 180 152 204 146 137 197 198 174 139 51 351 170 169 195 225 191 326 357 22 114 170 194 189 190 210 214 214 216 227 215 172 162
316 310 310 315 316 320 321 318 316 315 316 314 313 310 311 324 315 229 154 151 138 144 175 183 170 193 253 267 277 265 296 292 251 238 212 200 197 182 159 140 137 139 137 148 161 158 156 190 220 159 166 170 170 184 187 182 167 162 166 154 141 171 190 184 157 73 9 61 151 165 225 229 351 3 23 33 20 213 208 231 227 227 228 224 235 240 185 179
311 304 307 315 317 320 320 317 314 315 318 315 317 318 320 66 83 103 126 148 140 137 192 193 186 198 304 239 251 321 315 299 258 220 187 176 179 170 144 133 132 137 152 154 165 183 161 150 189 184 181 177 176 186 181 164 160 160 164 162 148 151 178 200 201 281 339 100 149 170 201 65 28 5 3 357 359 187 226 301 248 236 238 239 246 257 239 221
308 304 309 313 315 320 318 314 311 313 317 316 326 334 148 140 111 110 134 195 220 250 322 187 199 251 327 187 27 357 335 291 247 214 179 170 165 155 133 126 129 144 167 160 160 172 174 176 186 186 173 166 169 173 158 145 145 133 129 137 137 154 168 177 253 307 280 191 122 107 84 61 38 15 1 350 22 61 330 258 230 224 225 235 240 244 245 238
309 309 313 314 317 319 315 314 310 310 314 314 321 327 250 223 184 129 203 230 240 250 266 226 204 242 266 255 10 13 360 311 324 257 185 174 160 158 159 144 149 172 173 153 139 134 186 194 188 170 156 155 160 155 127 117 122 119 125 130 134 177 171 133 96 307 265 189 90 95 90 68 41 28 15 8 37 40 2 291 200 207 211 218 224 230 241 248
308 312 317 318 320 317 314 312 308 307 308 306 300 280 261 215 119 45 316 256 248 234 242 239 215 245 258 260 288 350 352 281 295 296 173 172 171 171 164 154 167 169 152 148 135 147 191 198 181 156 138 110 103 133 127 119 123 116 128 144 154 174 192 132 69 315 314 75 130 110 94 73 43 34 31 29 37 40 27 21 28 220 213 220 226 226 234 247
312 316 321 322 321 316 313 309 305 303 300 293 264 232 213 153 77 346 311 267 278 224 221 226 219 237 246 256 257 222 231 237 255 277 168 170 183 174 158 161 171 153 158 177 167 166 187 190 165 144 132 110 102 141 131 116 118 123 148 175 167 158 203 175 142 312 13 36 136 120 98 75 57 52 49 41 42 52 53 54 45 41 26 301 266 242 242 252
314 317 320 323 320 314 312 309 304 299 293 279 256 239 212 45 339 331 293 238 282 235 208 207 205 222 229 236 204 183 206 212 214 244 175 173 169 155 164 161 157 156 175 187 173 164 163 151 139 130 139 132 120 141 143 140 155 165 191 192 177 176 221 182 121 223 81 54 130 127 109 76 39 29 44 40 47 55 54 60 54 47 41 24 16 0 333 308
309 312 315 318 318 314 312 309 301 293 302 283 264 246 203 340 345 330 254 264 268 251 213 192 191 219 211 196 171 168 192 210 215 218 175 177 166 145 162 155 162 175 174 172 167 163 150 132 137 136 146 138 128 149 173 169 162 189 217 208 199 186 202 179 106 174 141 123 169 145 131 110 30 24 40 30 45 55 54 61 57 53 49 39 33 18 6 1
300 298 305 315 316 316 315 305 285 306 307 279 236 172 145 343 346 281 226 299 258 228 168 166 186 195 180 168 159 152 166 213 216 205 180 180 175 148 153 153 176 177 165 161 167 167 130 140 152 147 142 136 137 158 186 177 167 195 203 193 197 178 183 188 155 173 171 136 121 310 204 140 111 36 30 20 53 60 58 65 60 55 51 43 39 28 22 19
292 287 300 313 316 319 318 291 296 308 298 235 200 207 287 333 336 213 208 316 258 193 143 156 211 178 170 166 158 152 177 167 165 191 188 179 177 155 164 168 152 159 159 157 173 169 132 145 153 143 140 142 151 164 181 178 172 186 178 174 179 180 195 198 173 185 228 108 102 281 227 137 137 76 24 12 81 67 54 59 56 53 49 43 42 37 37 37
297 297 304 310 309 305 295 288 296 289 251 216 257 277 314 330 322 185 263 288 246 205 137 170 192 163 150 159 164 167 201 138 138 180 184 178 178 132 168 178 165 159 173 183 176 146 139 166 166 150 149 163 174 171 166 172 184 211 164 168 175 181 194 197 181 168 124 228 175 176 219 144 137 55 15 18 86 67 51 52 53 52 51 45 42 41 43 46
305 308 307 306 302 291 286 282 269 257 252 268 294 312 324 327 173 182 324 222 245 284 122 135 153 150 126 156 180 203 152 146 164 146 155 176 189 113 160 175 156 153 165 212 172 128 166 190 173 157 160 177 181 165 163 174 191 159 134 129 116 95 91 132 190 157 133 230 188 161 251 165 132 346 10 52 67 61 51 56 58 58 59 55 50 47 48 51
304 308 306 303 297 289 290 276 258 260 274 292 313 324 329 198 170 212 225 227 273 320 92 147 173 151 143 153 188 217 184 117 125 120 128 169 177 66 97 108 130 147 140 9 149 118 54 156 167 173 172 167 156 126 161 177 154 130 137 123 104 90 70 82 65 125 167 209 180 122 292 232 144 187 340 28 44 56 65 66 64 64 64 61 56 51 50 53
300 304 302 295 287 285 292 280 263 245 288 315 326 330 316 163 217 215 196 205 340 342 334 184 152 145 157 160 174 201 202 83 138 144 145 159 148 120 133 132 119 135 142 166 163 114 62 122 163 204 162 127 121 105 95 154 137 142 151 140 132 121 117 140 109 183 196 188 124 1 293 236 158 154 168 151 73 67 72 69 71 73 68 62 59 56 52 52
299 301 298 289 279 269 258 251 228 170 298 319 330 325 172 181 251 218 236 298 72 314 327 27 155 158 169 173 163 179 180 145 155 156 153 163 164 160 168 169 159 154 169 181 169 161 155 164 197 266 174 143 132 125 104 132 167 185 171 163 168 161 163 178 176 196 205 161 87 316 275 101 66 78 138 138 98 73 65 62 70 75 70 64 59 55 53 51
305 301 294 284 274 262 254 254 259 270 293 319 329 261 178 214 222 209 250 305 56 310 325 345 307 174 173 187 169 174 173 147 168 164 153 160 165 163 171 172 158 153 172 169 156 170 186 231 254 173 197 176 151 149 152 161 184 191 184 180 179 168 165 173 169 183 202 138 112 293 266 123 104 132 142 123 102 81 77 71 72 74 70 65 60 54 53 50
303 297 291 285 277 268 264 263 264 270 289 311 296 197 183 210 237 210 229 273 33 327 310 333 328 205 178 194 169 165 167 148 169 162 152 159 166 169 166 176 169 110 109 153 156 179 182 215 202 174 178 170 163 168 159 156 176 186 189 190 181 178 172 166 161 168 165 130 111 357 205 137 135 147 136 123 122 107 95 83 75 71 64 61 56 50 49 47
303 297 294 288 278 273 268 259 252 243 246 268 214 181 195 212 258 278 242 300 34 352 313 314 312 253 192 203 171 169 176 160 163 158 159 166 166 168 163 177 186 137 133 162 168 176 174 220 204 159 127 166 168 168 141 144 166 185 169 185 192 182 134 109 89 101 119 118 88 33 62 94 101 135 152 171 160 131 109 88 78 70 61 58 52 45 43 41
307 304 299 283 272 276 271 237 211 190 186 207 186 193 215 224 236 138 260 326 32 343 321 308 285 213 188 179 171 183 201 108 159 162 164 165 161 166 167 174 182 170 157 158 161 159 149 179 202 115 154 184 170 153 150 161 157 147 179 189 188 112 110 120 112 25 51 146 111 33 111 126 125 154 174 183 163 136 116 93 85 78 71 65 55 49 45 40
310 307 297 274 271 280 261 184 167 165 172 198 198 202 214 229 212 165 181 191 140 328 323 313 266 189 183 169 167 182 178 125 162 175 156 162 164 166 176 181 171 176 178 156 166 210 173 152 166 178 182 202 147 124 118 284 143 143 180 173 134 77 83 114 131 105 146 156 114 45 146 163 167 160 171 180 170 143 124 107 96 82 76 70 59 57 51 43
308 301 285 276 278 269 213 165 153 153 161 200 216 224 210 210 201 180 202 229 296 316 307 269 264 211 174 170 164 174 173 153 165 167 152 176 208 163 174 178 165 181 192 173 150 212 190 145 134 231 177 122 103 133 114 43 330 131 161 154 141 169 168 153 148 153 155 135 113 107 139 219 208 176 172 180 174 149 128 109 94 78 73 71 60 56 50 44
300 288 284 291 280 215 174 155 147 144 187 200 215 231 208 217 250 261 276 289 303 314 290 241 248 265 186 178 161 165 170 160 157 148 158 186 219 175 187 177 161 188 196 176 145 137 205 158 147 241 45 117 153 182 164 159 121 47 133 151 190 196 166 161 126 143 154 137 135 135 137 243 223 180 181 182 169 147 127 106 93 80 73 69 58 52 47 43
288 276 305 52 161 170 154 147 146 153 199 204 205 237 274 295 278 272 272 275 271 261 263 257 257 270 225 178 163 160 137 139 151 148 162 161 106 213 240 222 153 177 200 174 147 128 35 196 141 122 202 173 166 197 196 168 149 144 159 161 145 92 127 137 93 48 131 142 145 141 176 238 223 133 183 180 160 142 130 117 109 96 81 71 58 54 48 44
284 263 104 104 153 152 145 146 173 180 195 222 179 236 304 307 271 276 272 260 244 223 248 262 267 271 264 177 160 154 112 116 147 136 126 155 136 209 242 221 154 154 158 165 170 164 146 168 137 127 147 169 144 29 242 200 158 155 169 172 153 127 137 151 148 89 66 117 145 151 186 217 84 66 194 174 147 136 133 123 116 106 92 79 62 56 52 45
264 217 69 147 156 150 145 166 185 177 204 213 198 228 261 261 259 277 282 259 249 240 244 256 253 242 236 198 154 138 115 103 129 130 130 149 182 204 173 157 170 157 150 159 182 160 128 96 113 106 110 139 11 11 262 194 111 105 128 167 150 137 155 168 174 165 109 88 122 143 182 164 97 86 163 142 129 128 126 117 114 113 99 87 74 62 56 50
248 13 35 154 157 149 74 211 167 248 222 201 275 241 224 251 250 246 253 245 246 244 239 245 235 218 223 208 140 136 123 82 43 125 121 114 158 225 245 191 181 158 146 156 159 145 141 84 110 104 80 69 64 79 90 88 107 98 66 67 134 140 139 145 155 152 140 138 139 149 178 143 106 100 103 113 119 119 112 109 114 118 104 89 82 70 59 51
291 322 53 152 166 188 324 185 175 228 214 237 300 254 239 254 240 230 239 234 226 235 252 250 237 220 237 202 115 134 141 99 35 83 95 115 162 258 330 193 177 157 149 184 167 156 178 225 131 137 120 103 111 130 128 92 92 100 74 53 68 101 108 109 103 118 146 171 164 166 180 154 114 116 108 108 113 110 105 109 119 122 110 95 84 73 63 52
295 271 68 148 193 273 304 210 291 188 195 240 309 272 260 244 240 224 227 240 235 230 251 260 256 227 213 128 95 81 75 106 108 102 98 116 145 25 8 155 182 173 144 132 117 119 121 63 126 163 147 140 143 147 150 130 105 77 59 40 34 82 118 125 122 147 172 173 172 177 170 137 130 129 123 117 113 108 106 111 117 115 105 94 81 71 62 51
294 150 93 143 214 275 284 270 293 179 162 148 184 265 220 226 279 223 211 237 239 222 230 265 284 294 94 90 92 67 28 46 93 123 154 143 126 12 359 60 113 112 103 89 77 94 104 61 39 75 100 117 115 70 354 45 126 111 58 28 19 2 0 101 129 168 161 147 175 200 143 150 168 160 141 131 122 116 118 119 115 106 97 89 81 74 66 56
284 158 143 159 199 256 267 272 272 254 209 161 183 254 201 217 300 253 201 222 212 207 223 218 11 19 86 109 105 80 23 46 75 100 130 116 115 96 9 58 85 94 99 83 40 75 107 80 54 66 64 51 63 70 43 68 92 94 69 35 17 349 328 135 135 136 134 143 186 195 155 163 176 169 150 139 130 122 119 115 110 105 96 91 85 78 71 60
258 306 255 225 228 219 219 242 236 228 245 200 194 273 200 211 293 267 233 251 252 280 235 107 23 359 321 145 119 106 74 75 62 72 121 92 119 129 57 65 48 24 93 80 18 81 101 89 106 92 75 62 66 81 86 88 87 77 67 52 33 13 12 119 103 43 116 160 203 169 161 160 158 153 142 130 127 119 109 106 108 103 92 88 85 78 68 56
237 295 288 291 292 244 200 207 201 205 231 239 229 266 185 236 269 258 266 305 333 348 38 57 359 348 344 24 105 103 117 118 99 118 171 109 111 126 91 90 54 18 66 77 53 89 91 92 137 116 82 58 51 73 98 103 98 78 61 52 56 67 75 93 98 72 57 42 98 142 139 115 105 125 116 108 111 108 105 104 100 94 89 87 85 76 66 57
177 318 301 294 289 269 231 202 186 183 215 239 236 247 204 236 256 262 303 354 333 335 35 90 38 27 49 61 79 85 104 165 123 134 180 143 110 106 89 113 89 49 55 63 61 9 85 128 159 132 83 52 41 69 93 105 103 84 62 50 60 79 78 77 88 80 67 81 113 127 124 103 78 105 105 106 108 105 106 100 88 88 92 93 86 75 68 61
298 295 292 281 270 221 188 198 163 166 199 224 208 188 207 241 251 225 5 7 15 353 31 118 114 52 54 60 65 64 3 27 82 94 121 114 94 85 57 69 185 98 68 59 45 7 66 127 159 134 99 76 41 80 96 103 103 87 61 41 41 63 79 68 62 49 104 127 127 127 134 142 136 119 110 107 107 106 103 94 88 89 88 88 87 79 70 59
322 305 304 285 264 225 200 192 145 175 215 207 195 191 209 257 277 137 96 19 29 40 30 56 112 63 53 56 53 24 335 92 91 92 96 91 85 84 83 78 69 73 97 100 59 17 96 134 153 139 108 127 223 120 105 139 127 97 49 19 27 68 101 89 60 36 53 127 133 134 143 139 136 130 118 107 105 103 93 87 94 97 90 87 85 80 69 56